Location: ??????
(38.0131°N, 23.7723°E)
Time: 05:22:19
(UTC+00:00)

SJ-11-01 - Pass Details

Date: 17 October 2021
Orbit: 685 x 700 km, 97.9° (Epoch: 28 November)

Event Time Altitude Azimuth Distance (km) Brightness Sun altitude
Rises 16:43:39 0° 162° (SSE) 3,036 7.4 -12.4°
Reaches altitude 10° 16:45:52 10° 160° (SSE) 2,126 6.6 -12.8°
Maximum altitude 16:50:31 75° 76° (ENE) 715 4.2 -13.8°
Drops below altitude 10° 16:55:12 10° 351° (N) 2,149 6.9 -14.7°
Sets 16:57:28 0° 350° (N) 3,073 7.8 -15.1°
